Location: Newark
(36.0797°N, 3.9744°E)
Time: 04:55:56
(UTC+00:00)

Transit 4A - Visible Passes

Search period start: 13 December 2019 00:00
Search period end: 23 December 2019 00:00
Orbit: 870 x 975 km, 66.8° (Epoch: 12 December)

Date Brightness Start Highest point End Pass type
(mag) Time Alt. Az. Time Alt. Az. Time Alt. Az.
13 Dec 9.9 17:05:57 10° W 17:10:41 23° NW 17:15:21 10° N visible
14 Dec 10.1 17:16:47 10° W 17:20:22 16° NW 17:23:56 10° N visible
15 Dec 10.4 17:28:50 10° NW 17:30:09 11° NW 17:31:29 10° NNW visible
